Flag for U.S.A. Weather past 2 weeks in Moreno Valley, California, U.S.A.

Now
46 °F

Passing clouds.


Feels Like: 45 °F
Forecast: 42 / 56 °F
Wind: 3 mph from Southeast

Location: Riverside / March Air Force Base

Current Time: Dec 18, 2014 at 1:01:17 AM

Latest Report: Dec 17, 2014 at 11:58 PM


Visibility: 10 mi

Pressure: 30.12 "Hg

Humidity: 100%

Dew point: 46 °F

Location of Moreno ValleyLocation

Historic Weather in Moreno Valley — Graph

°F

Moreno Valley temperature yesterday

Maximum temperature yesterday: 58 °F (at 12:58 PM)
Minimum temperature yesterday: 46 °F (at 11:58 PM)
Average temperature yesterday: 51 °F

Past Weeks' High & Low Weather Summary

 TemperatureHumidityPressure
High75 °F (Dec 8, 12:58 PM)100% (Dec 2, 11:58 PM)30.22 "Hg (Dec 2, 11:58 PM)
Low38 °F (Dec 14, 6:58 AM)28% (Dec 9, 2:58 PM)29.86 "Hg (Dec 12, 4:58 AM)
Average55 °F85%30.05 "Hg
* Reported Dec 2 11:58 PM — Dec 17 11:58 PM, Moreno Valley, Weather by CustomWeather, © 2014

Note: Actual official high and low records may vary slightly from our data, if they occured in-between our weather recording intervals... More about our weather records

Advertising

Moreno Valley weather history for previous 24 hours

 ConditionsComfort  
Time TempWeatherWind HumidityBarometerVisibility
11:58 PM
Dec 17
46 °FPassing clouds.3 mph100%30.12 "Hg10 mi
10:58 PM47 °FPassing clouds.No wind100%30.12 "Hg10 mi
9:58 PM49 °FPassing clouds.2 mph97%30.12 "Hg10 mi
9:03 PM50 °FPassing clouds.3 mph94%30.11 "Hg10 mi
8:58 PM51 °FMostly cloudy.3 mph88%30.11 "Hg10 mi
7:58 PM52 °FOvercast.3 mph80%30.09 "Hg10 mi
6:58 PM52 °FOvercast.No wind80%30.09 "Hg10 mi
5:58 PM53 °FOvercast.6 mph80%30.08 "Hg10 mi
4:58 PM54 °FPartly cloudy.3 mph79%30.06 "Hg10 mi
3:58 PM56 °FMostly cloudy.3 mph74%30.04 "Hg10 mi
2:58 PM57 °FBroken clouds.7 mph71%30.04 "Hg10 mi
1:58 PM57 °FScattered showers. Broken clouds.6 mph72%30.03 "Hg10 mi
12:58 PM58 °FPartly sunny.5 mph69%30.02 "Hg10 mi
11:58 AM56 °FBroken clouds.3 mph74%30.03 "Hg10 mi
10:58 AM56 °FPartly sunny.7 mph80%30.05 "Hg10 mi
9:58 AM53 °FBroken clouds.6 mph96%30.06 "Hg10 mi
8:58 AM51 °FBroken clouds.7 mph100%30.04 "Hg10 mi
7:58 AM48 °FBroken clouds.No wind100%30.02 "Hg10 mi
6:58 AM47 °FPartly sunny.6 mph100%30.01 "Hg10 mi
5:58 AM47 °FScattered showers. Passing clouds.8 mph100%29.98 "Hg10 mi
4:58 AM50 °FRain. Fog.6 mph100%29.96 "Hg5 mi
3:58 AM49 °FScattered showers. Partly cloudy.6 mph100%29.95 "Hg10 mi
2:58 AM50 °FLight rain. Mostly cloudy.6 mph100%29.96 "Hg8 mi
1:58 AM51 °FScattered showers. Mostly cloudy.7 mph100%29.98 "Hg10 mi
1:03 AM48 °FPartly cloudy.2 mph100%29.99 "Hg10 mi
Weather by CustomWeather, © 2014

See weather overviewHow to use our weather pages